THOR ABLESTAR DEB, 653

Orbit data source: Space-Track

THOR ABLESTAR DEB, 653 is space debris in LEO originally from a launch on Thu, 29 Jun 1961 UTC launched from the Air Force Eastern Test Range (AFETR). Debris objects in space refer to the collection of defunct objects orbiting the Earth. Examples of debris include non-operational satellites, rocket bodies, and fragments generated from explosions, collisions, or faulty payload assembly.

Loading next visibility...
Identifier
653, 1961-015HE
Orbit
LEO
Country
Flag of USUS
Related business
Manufacturer
Unknown
Mission
Spacecraft
Bus & Motor
Unknown
Mass
Unknown
Launch date (UTC)
1961-06-29 (65 years ago)
Launch vehicle
Unknown
Launch site
Air Force Eastern Test Range (AFETR)
Object type
Payload
Rocket body
Debris
Shape & HBR
Unknown shape, 0.1 m
Radar Cross Section
Medium (>0.1 m² and <1 m²)

Expand to show TLE details & history
Last TLE update: 6 days ago

TLE from 6 days ago
0 THOR ABLESTAR DEB
1   653U 61015HE  26154.24442600  .00000522  00000-0  61137-3 0  9997
2   653  67.4487 200.9523 0157433 346.8582  81.9982 13.70391844215973
Epoch: 2026-06-03T05:51Z
TLE epoch observation values (Epoch: 2026-06-03T05:51:58.406Z)
Latitude
60.72939°
Longitude
-91.26745°
Altitude
993.366 km
Speed
7.368 km/s
True Right ascension
16h 33m 43s
True Declination
60° 35' 14"
Sunlit
Object was in daylight at epoch
Visualization orbit readout
Latitude
Unknown
Longitude
Unknown
Altitude
Unknown
Speed
Unknown
Apparent Right ascension
Unknown
Apparent Declination
Unknown
Sunlit
N/A
Visualization observer readout
Local Sidereal Time
04:03:11
Azimuth
Unknown
Elevation
Unknown
Doppler factor
Unknown
Orbital elements
Apogee altitude
1,112.602 km
Perigee altitude
880.4 km
Semi-major axis
7,374.638 km
Eccentricity
0.01574
Inclination
67.4487°
RAAN
200.9523°
Arg. of periapsis
346.8582°
True anomaly
83.7893°
Mean anomaly
81.9982°
Eccentric anomaly
82.89329°
Mean motion
3.42714 °/min
Orbital period
105.04 mins
BSTAR
0.00061137
Loading maneuver chart data...
Computing Atmospheric mass density...

Documentation

Showing up to 5 results
|